Terminal Aerodrome Forecast
Issued by NWS Sterling, VA

Current Version | Previous Version | Graphics & Text | Print | Product List | Glossary On
Versions: 1 2 3 4 5 6 7 8 9 10 11 12 13 14 15 16 17 18 19 20 21 22
000
FTUS41 KLWX 190500
TAFDCA
TAF
KDCA 190536Z 1906/2006 30007KT P6SM SCT050 BKN090
     FM191400 31013G20KT P6SM SCT040
     FM200000 32005KT P6SM FEW250=

USA.gov is the U.S. government's official web portal to all federal, state and local government web resources and services.